Weather in Itabuna

Brazil     14°47′40″S   39°16′25″W
temp.,
°C
wind,
m/s
gust,
m/s
humid.,
%
clouds,
%
prec.,
mm/h
press.,
hPa
HPBL,
m
20 april, tue
tue2000:00+22w11100100 3.5 101334
03:00+21wnw11100100 5.1 101231
06:00+21wsw1110097 4.1 101244
09:00+23nnw0196100 5.3 1014102
12:00+25n139691 3.4 1012189
15:00+25nnw0193100 4.9 101097
18:00+22s009774 0.5 101111
21:00+21nnw019976 0.7 101314
21 april, wed
wed2100:00+22nw11100100 1.4 101227
03:00+22w1199100 1.9 101136
06:00+21wnw1199100 0.5 101232
09:00+24wsw1291100 0.9 1013205
12:00+32ne125112 0.1 10111174
15:00+30sw235896 0.3 1009853
18:00+23se1196100 0.9 101124
21:00+22ese1197100 1.3 101319
22 april, thu
thu2200:00+22w11100100 1.8 101321
03:00+22wnw12100100 8.8 101285
06:00+22nnw0010092 3.9 101332
09:00+23nnw1299100 5.1 1015176
12:00+23nnw1499100 1.6 1014236
15:00+23wnw0099100 3.3 101242
18:00+22sse11100100 0.1 101327
21:00+21e0010088 0.2 101522
23 april, fri
fri2300:00+21wsw0010074 0.0 101519
03:00+21sw1110040 0.0 101321
06:00+20wsw12100100 0.0 101553
09:00+26ssw1272100 0.0 1016620
12:00+26ese237894 1.3 1014657
15:00+27e247235 2.8 1011656
18:00+22ese13906 0.1 101371
21:00+21ssw119920 0.1 101517
24 april, sat
sat2400:00+20sw119977 0.0 101530
03:00+20sw119974 0.0 101323
06:00+20wsw119930 0.0 101433
09:00+28se126415 0.0 1015956
12:00+31ese334826 0.0 10131864
15:00+29e3454100 0.0 10111075
18:00+23ese1188100 0.0 101221
21:00+23ssw009398 0.0 101419